Date,TemperatureHighF,TemperatureAvgF,TemperatureLowF,DewpointHighF,DewpointAvgF,DewpointLowF,HumidityHigh,HumidityAvg,HumidityLow,PressureMaxIn,PressureMinIn,WindSpeedMaxMPH,WindSpeedAvgMPH,GustSpeedMaxMPH,PrecipitationSumIn
2013-9-1,90,77,71,78,72,68,95,85,62,29.89,29.77,5,1,11,0.50
2013-9-2,90,78,70,78,73,69,96,86,62,29.89,29.79,3,0,5,0.01
2013-9-3,90,81,73,78,72,67,95,77,47,29.93,29.79,3,0,7,0.00
2013-9-4,89,77,66,70,66,61,85,69,48,30.07,29.95,3,0,4,0.00
2013-9-5,89,76,67,72,67,63,94,75,42,30.10,30.03,2,0,5,0.00
2013-9-6,86,75,67,67,63,60,85,68,47,30.18,30.06,2,0,5,0.00
2013-9-7,84,73,63,70,65,59,90,76,59,30.12,29.97,5,1,8,0.00
2013-9-8,86,73,68,72,68,66,92,83,57,29.97,29.94,3,0,4,0.00
2013-9-13,86,77,67,71,63,53,89,65,42,29.90,29.77,2,1,0,0.00
2013-9-14,79,68,58,60,55,50,79,65,50,30.11,29.91,3,1,0,0.00
2013-9-15,82,70,58,67,62,54,88,75,59,30.22,30.10,1,0,0,0.00
2013-9-16,87,75,66,72,66,62,93,74,49,30.15,30.04,2,0,0,0.00
2013-9-17,76,70,63,62,58,56,82,67,51,30.29,30.16,2,1,0,0.00
2013-9-18,76,67,59,60,56,53,83,69,53,30.31,30.16,2,0,0,0.00
2013-9-19,77,69,63,66,60,55,86,72,64,30.19,30.08,2,0,3,0.00
2013-9-20,90,77,67,73,67,63,89,73,45,30.07,29.90,2,0,3,0.00
2013-9-21,74,71,66,71,68,65,95,91,86,29.91,29.69,5,2,12,1.26
2013-9-22,80,69,59,63,59,56,95,73,48,29.88,29.70,2,0,7,0.00
2013-9-23,77,67,58,61,57,53,85,70,54,30.06,29.91,3,0,4,0.00
2013-9-24,80,70,64,63,60,57,84,72,53,30.07,29.93,2,0,0,0.00
2013-9-25,71,66,63,65,62,59,94,85,74,29.94,29.86,5,0,6,0.06
2013-9-26,77,68,59,63,59,56,93,75,51,29.98,29.88,2,0,6,0.00
2013-9-27,77,66,56,62,56,53,89,73,51,30.18,30.03,1,0,0,0.00
2013-9-28,73,64,55,60,55,52,92,74,54,30.25,30.16,2,0,6,0.00
2013-9-29,74,64,57,62,57,52,89,78,59,30.18,30.03,4,0,6,0.00
2013-9-30,80,66,55,62,57,53,94,75,46,30.10,30.00,3,0,4,0.00